When you browse on this site, cookies collect data to enhance your experience and personalize the content and advertising you see.
Visit our Privacy Policy to learn more. By continuing to use the site, you agree to this use of cookies and data.
  • In Austria
  • List of Countries
  • For 7 days
  • Water Temperature
  • Satellite Maps
  • Weather Map
  • News
  • Weather Widgets
  • user-avatar
    Login

    Hourly Weather Sharan

    Today, 27 June, Thursday

    Time Temperature Precipitation Wind Pressure Humidity
    00:00 +24°C° 0 mm 3 mps 587 mmHg 24%
    01:00 +23°C° 0 mm 2 mps 586 mmHg 28%
    02:00 +21°C° 0 mm 2 mps 586 mmHg 31%
    03:00 +20°C° 0 mm 2 mps 585 mmHg 31%
    04:00 +20°C° 0 mm 2 mps 585 mmHg 31%
    05:00 +19°C° 0 mm 2 mps 585 mmHg 33%
    06:00 +20°C° 0 mm 3 mps 586 mmHg 29%
    07:00 +21°C° 0 mm 3 mps 586 mmHg 24%
    08:00 +22°C° 0 mm 4 mps 587 mmHg 19%
    09:00 +24°C° 0 mm 3 mps 587 mmHg 17%
    10:00 +26°C° 0 mm 3 mps 588 mmHg 15%
    11:00 +27°C° 0 mm 3 mps 588 mmHg 13%
    12:00 +28°C° 0 mm 3 mps 588 mmHg 11%
    13:00 +29°C° 0 mm 3 mps 588 mmHg 10%
    14:00 +30°C° 0 mm 3 mps 588 mmHg 9%
    15:00 +30°C° 0 mm 3 mps 587 mmHg 8%
    16:00 +30°C° 0 mm 3 mps 587 mmHg 8%
    17:00 +30°C° 0 mm 3 mps 587 mmHg 8%
    18:00 +30°C° 0 mm 3 mps 587 mmHg 9%
    19:00 +29°C° 0 mm 2 mps 587 mmHg 9%
    20:00 +28°C° 0 mm 2 mps 587 mmHg 10%
    21:00 +27°C° 0 mm 3 mps 586 mmHg 13%
    22:00 +25°C° 0 mm 3 mps 586 mmHg 17%
    23:00 +24°C° 0 mm 3 mps 586 mmHg 21%

    Tomorrow, 28 June, Friday

    Time Temperature Precipitation Wind Pressure Humidity
    00:00 +22°C° 0 mm 3 mps 585 mmHg 24%
    01:00 +22°C° 0 mm 3 mps 585 mmHg 27%
    02:00 +21°C° 0 mm 3 mps 585 mmHg 30%
    03:00 +20°C° 0 mm 3 mps 584 mmHg 29%
    04:00 +20°C° 0 mm 3 mps 584 mmHg 28%
    05:00 +19°C° 0 mm 3 mps 584 mmHg 27%
    06:00 +20°C° 0 mm 3 mps 585 mmHg 25%
    07:00 +21°C° 0 mm 3 mps 586 mmHg 22%
    08:00 +24°C° 0 mm 3 mps 586 mmHg 19%
    09:00 +25°C° 0 mm 2 mps 587 mmHg 19%
    10:00 +26°C° 0 mm 2 mps 587 mmHg 18%
    11:00 +27°C° 0 mm 1 mps 587 mmHg 17%
    12:00 +28°C° 0 mm 2 mps 587 mmHg 15%
    13:00 +29°C° 0 mm 2 mps 587 mmHg 12%
    14:00 +30°C° 0 mm 2 mps 587 mmHg 10%
    15:00 +31°C° 0 mm 2 mps 587 mmHg 10%
    16:00 +31°C° 0 mm 3 mps 587 mmHg 9%
    17:00 +31°C° 0 mm 3 mps 587 mmHg 9%
    18:00 +30°C° 0 mm 2 mps 586 mmHg 10%
    19:00 +29°C° 0 mm 2 mps 586 mmHg 11%
    20:00 +28°C° 0 mm 2 mps 586 mmHg 12%
    21:00 +27°C° 0 mm 2 mps 586 mmHg 18%
    22:00 +27°C° 0 mm 3 mps 586 mmHg 23%
    23:00 +26°C° 0 mm 3 mps 586 mmHg 29%

    Day after tomorrow, 29 June, Saturday

    Time Temperature Precipitation Wind Pressure Humidity
    00:00 +25°C° 0.1 mm 3 mps 585 mmHg 30%
    01:00 +24°C° 0.1 mm 3 mps 585 mmHg 32%
    02:00 +22°C° 0.1 mm 3 mps 584 mmHg 33%
    03:00 +21°C° 0 mm 2 mps 584 mmHg 35%
    04:00 +21°C° 0 mm 2 mps 584 mmHg 36%
    05:00 +20°C° 0 mm 2 mps 584 mmHg 38%
    06:00 +23°C° 0 mm 1 mps 584 mmHg 35%
    07:00 +24°C° 0 mm 1 mps 585 mmHg 33%
    08:00 +25°C° 0 mm 1 mps 586 mmHg 30%
    09:00 +26°C° 0 mm 2 mps 586 mmHg 26%
    10:00 +28°C° 0 mm 2 mps 587 mmHg 21%
    11:00 +29°C° 0 mm 3 mps 587 mmHg 16%
    12:00 +32°C° 0 mm 4 mps 587 mmHg 13%
    13:00 +33°C° 0 mm 5 mps 587 mmHg 11%
    14:00 +34°C° 0 mm 7 mps 587 mmHg 8%
    15:00 +34°C° 0 mm 6 mps 587 mmHg 8%
    16:00 +34°C° 0 mm 6 mps 587 mmHg 7%
    17:00 +34°C° 0 mm 6 mps 586 mmHg 7%
    18:00 +33°C° 0 mm 5 mps 586 mmHg 7%
    19:00 +32°C° 0 mm 5 mps 586 mmHg 8%
    20:00 +29°C° 0 mm 5 mps 586 mmHg 9%
    21:00 +28°C° 0 mm 4 mps 586 mmHg 14%
    22:00 +27°C° 0 mm 4 mps 586 mmHg 19%
    23:00 +26°C° 0 mm 4 mps 586 mmHg 24%

    30 June, Sunday

    Time Temperature Precipitation Wind Pressure Humidity
    00:00 +25°C° 0 mm 3 mps 585 mmHg 28%
    01:00 +24°C° 0 mm 3 mps 584 mmHg 32%
    02:00 +21°C° 0 mm 3 mps 584 mmHg 36%
    03:00 +21°C° 0 mm 2 mps 584 mmHg 38%
    04:00 +20°C° 0 mm 2 mps 584 mmHg 39%
    05:00 +20°C° 0 mm 2 mps 583 mmHg 41%
    06:00 +21°C° 0 mm 2 mps 584 mmHg 38%
    07:00 +23°C° 0 mm 2 mps 585 mmHg 34%
    08:00 +24°C° 0 mm 2 mps 586 mmHg 31%
    09:00 +26°C° 0 mm 2 mps 586 mmHg 27%
    10:00 +27°C° 0 mm 1 mps 587 mmHg 23%
    11:00 +29°C° 0 mm 1 mps 587 mmHg 18%
    12:00 +30°C° 0 mm 2 mps 588 mmHg 15%
    13:00 +33°C° 0 mm 3 mps 588 mmHg 12%
    14:00 +34°C° 0 mm 4 mps 588 mmHg 9%
    15:00 +34°C° 0 mm 4 mps 587 mmHg 8%
    16:00 +34°C° 0 mm 4 mps 587 mmHg 8%
    17:00 +34°C° 0 mm 4 mps 587 mmHg 7%
    18:00 +33°C° 0 mm 4 mps 587 mmHg 9%
    19:00 +32°C° 0 mm 4 mps 587 mmHg 10%
    20:00 +30°C° 0 mm 4 mps 586 mmHg 12%
    21:00 +29°C° 0 mm 3 mps 586 mmHg 18%
    22:00 +27°C° 0 mm 3 mps 586 mmHg 25%
    23:00 +26°C° 0 mm 3 mps 586 mmHg 31%

    1 July, Monday

    Time Temperature Precipitation Wind Pressure Humidity
    00:00 +25°C° 0 mm 3 mps 585 mmHg 33%
    01:00 +25°C° 0 mm 2 mps 585 mmHg 34%
    02:00 +24°C° 0 mm 2 mps 584 mmHg 36%
    03:00 +24°C° 0 mm 2 mps 584 mmHg 37%
    04:00 +23°C° 0 mm 1 mps 584 mmHg 39%
    05:00 +22°C° 0 mm 1 mps 584 mmHg 40%
    06:00 +24°C° 0 mm 1 mps 585 mmHg 36%
    07:00 +25°C° 0 mm 2 mps 586 mmHg 31%
    08:00 +26°C° 0 mm 2 mps 586 mmHg 27%
    09:00 +28°C° 0 mm 2 mps 587 mmHg 24%
    10:00 +29°C° 0 mm 3 mps 587 mmHg 20%
    11:00 +31°C° 0 mm 3 mps 588 mmHg 17%
    12:00 +31°C° 0 mm 3 mps 588 mmHg 15%
    13:00 +32°C° 0 mm 2 mps 587 mmHg 13%
    14:00 +34°C° 0 mm 2 mps 587 mmHg 10%
    15:00 +34°C° 0 mm 2 mps 587 mmHg 10%
    16:00 +34°C° 0 mm 2 mps 587 mmHg 10%
    17:00 +34°C° 0 mm 2 mps 587 mmHg 10%
    18:00 +33°C° 0 mm 3 mps 587 mmHg 14%
    19:00 +31°C° 0 mm 3 mps 586 mmHg 17%
    20:00 +29°C° 0 mm 4 mps 586 mmHg 21%
    21:00 +28°C° 0 mm 3 mps 586 mmHg 22%
    22:00 +28°C° 0 mm 3 mps 586 mmHg 24%
    23:00 +27°C° 0 mm 2 mps 586 mmHg 26%

    2 July, Tuesday

    Time Temperature Precipitation Wind Pressure Humidity
    00:00 +26°C° 0 mm 2 mps 586 mmHg 25%
    01:00 +25°C° 0 mm 2 mps 586 mmHg 24%
    02:00 +25°C° 0 mm 2 mps 586 mmHg 24%
    03:00 +24°C° 0 mm 2 mps 586 mmHg 23%
    04:00 +23°C° 0 mm 2 mps 586 mmHg 23%
    05:00 +23°C° 0 mm 2 mps 585 mmHg 23%
    06:00 +24°C° 0 mm 3 mps 586 mmHg 21%
    07:00 +25°C° 0 mm 3 mps 587 mmHg 18%
    08:00 +26°C° 0 mm 3 mps 588 mmHg 16%
    09:00 +28°C° 0 mm 3 mps 588 mmHg 15%
    10:00 +29°C° 0 mm 3 mps 589 mmHg 13%
    11:00 +31°C° 0 mm 3 mps 589 mmHg 11%
    12:00 +33°C° 0 mm 3 mps 589 mmHg 10%
    13:00 +33°C° 0 mm 3 mps 589 mmHg 8%
    14:00 +34°C° 0 mm 2 mps 589 mmHg 7%
    15:00 +35°C° 0 mm 3 mps 589 mmHg 7%
    16:00 +35°C° 0 mm 4 mps 589 mmHg 7%
    17:00 +35°C° 0 mm 4 mps 588 mmHg 7%
    18:00 +34°C° 0 mm 4 mps 588 mmHg 11%
    19:00 +32°C° 0 mm 4 mps 588 mmHg 14%
    20:00 +30°C° 0 mm 3 mps 587 mmHg 18%
    21:00 +29°C° 0 mm 3 mps 587 mmHg 22%
    22:00 +28°C° 0 mm 2 mps 588 mmHg 27%
    23:00 +27°C° 0 mm 1 mps 588 mmHg 31%
    Show more